KB4QOR Weather Reports


Display with metric or nautical units.
time (UTC)temp
F
wind
direction
speed
MPH
gust
MPH
rain 1hr
in
rain 24hr
in
rain mn
in
humidity
%
barometer
mb
20260509194535 75 277 1.0 5.0 0.00 0.00 0.00 64 1009.7
20260509193031 74 84 1.0 7.0 0.00 0.00 0.00 66 1009.9
20260509191530 73 273 3.0 11.0 0.00 0.00 0.00 67 1010.0
20260509190033 73 292 2.0 7.0 0.00 0.00 0.00 66 1010.3
20260509184543 72 0 0.0 4.0 0.00 0.00 0.00 67 1010.3
20260509183033 71 275 0.0 9.0 0.00 0.00 0.00 70 1010.3
20260509181530 70 0 2.0 6.0 0.00 0.00 0.00 71 1010.2
20260509180028 68 86 0.0 6.0 0.00 0.00 0.00 72 1010.4
20260509174534 67 85 1.0 10.0 0.00 0.00 0.00 72 1010.3
20260509173032 66 73 2.0 6.0 0.00 0.00 0.00 72 1010.2
20260509171533 65 284 1.0 6.0 0.00 0.00 0.00 72 1010.4
20260509170030 65 0 0.0 3.0 0.00 0.00 0.00 72 1010.4
20260509164532 64 124 2.0 6.0 0.00 0.00 0.00 72 1010.3
20260509163027 63 271 1.0 6.0 0.00 0.00 0.00 71 1010.2
20260509161532 62 87 1.0 6.0 0.00 0.00 0.00 70 1010.0
20260509160033 62 278 1.0 7.0 0.00 0.00 0.00 70 1010.0
20260509154532 61 257 1.0 8.0 0.00 0.00 0.00 69 1010.0
20260509153040 61 0 1.0 8.0 0.00 0.00 0.00 69 1009.8
20260509151531 60 268 2.0 9.0 0.00 0.00 0.00 69 1009.9
20260509150119 60 269 1.0 7.0 0.00 0.00 0.00 69 1009.8
20260509150038 60 269 1.0 7.0 0.00 0.00 0.00 69 1009.8
20260509144532 60 257 1.0 8.0 0.00 0.00 0.00 68 1009.7
20260509143030 59 269 1.0 9.0 0.00 0.00 0.00 69 1009.7
20260509141532 59 0 1.0 9.0 0.00 0.00 0.00 68 1009.5
20260509140028 58 260 2.0 9.0 0.00 0.00 0.00 68 1009.6
20260509134550 58 270 2.0 4.0 0.00 0.00 0.00 68 1009.7
20260509133032 58 0 1.0 4.0 0.00 0.00 0.00 69 1009.5
20260509131530 57 0 0.0 4.0 0.00 0.00 0.00 70 1009.5
20260509130315 57 0 0.0 3.0 0.00 0.00 0.00 70 1009.3
20260509124535 57 0 0.0 0.0 0.00 0.00 0.00 71 1009.2
20260509123029 57 0 0.0 0.0 0.00 0.00 0.00 72 1009.3
20260509121540 57 0 0.0 1.0 0.00 0.00 0.00 72 1009.2
20260509120029 57 0 0.0 2.0 0.00 0.00 0.00 72 1009.3
20260509114536 57 0 0.0 1.0 0.00 0.00 0.00 73 1008.9
20260509113036 57 0 0.0 0.0 0.00 0.00 0.00 73 1008.6
20260509111531 57 0 0.0 0.0 0.00 0.00 0.00 73 1008.2
20260509110034 57 0 0.0 1.0 0.00 0.00 0.00 73 1008.4
20260509104540 57 0 0.0 1.0 0.00 0.00 0.00 73 1008.3
20260509103028 57 0 0.0 0.0 0.00 0.00 0.00 73 1008.5
20260509101534 57 0 0.0 0.0 0.00 0.00 0.00 73 1008.7
20260509100035 58 0 0.0 0.0 0.00 0.00 0.00 73 1008.6
20260509094536 58 0 0.0 0.0 0.00 0.00 0.00 73 1008.7
20260509093028 58 0 0.0 1.0 0.00 0.00 0.00 73 1008.8
20260509091538 58 0 0.0 2.0 0.00 0.00 0.00 73 1009.1
20260509090029 58 0 0.0 0.0 0.00 0.00 0.00 73 1008.9
20260509084533 58 0 0.0 2.0 0.00 0.00 0.00 73 1009.1
20260509083032 58 0 0.0 2.0 0.00 0.00 0.00 73 1009.0
20260509081531 58 0 0.0 3.0 0.00 0.00 0.00 73 1008.8
20260509080029 58 262 0.0 3.0 0.00 0.00 0.00 73 1008.8
20260509074541 58 0 1.0 6.0 0.00 0.00 0.00 73 1008.9
20260509073030 58 259 0.0 2.0 0.00 0.00 0.00 72 1009.0
20260509071529 58 0 0.0 3.0 0.00 0.00 0.00 73 1009.1
20260509070028 58 0 0.0 1.0 0.00 0.00 0.00 73 1009.2
20260509064532 58 0 0.0 2.0 0.00 0.00 0.00 73 1009.5
20260509063030 59 0 0.0 2.0 0.00 0.00 0.00 72 1009.6
20260509061528 59 0 0.0 1.0 0.00 0.00 0.00 72 1009.7
20260509060036 59 0 0.0 1.0 0.00 0.00 0.00 72 1009.6
20260509054540 59 0 0.0 1.0 0.00 0.00 0.00 72 1009.7
20260509053028 59 0 0.0 0.0 0.00 0.00 0.00 72 1009.8
20260509051533 60 0 0.0 0.0 0.00 0.00 0.00 72 1009.8
20260509050031 60 0 0.0 0.0 0.00 0.00 0.00 71 1009.8
20260509044529 60 0 0.0 0.0 0.00 0.00 0.00 71 1009.8
20260509043034 60 0 0.0 0.0 0.00 0.00 0.00 71 1009.8
20260509041544 61 0 0.0 0.0 0.00 0.00 0.00 71 1009.9
20260509040032 61 0 0.0 0.0 0.00 0.00 0.00 70 1009.9
20260509034529 61 0 0.0 0.0 0.00 0.00 0.00 70 1010.3
20260509033030 61 0 0.0 2.0 0.00 0.00 0.00 70 1010.1
20260509031536 62 0 0.0 2.0 0.00 0.00 0.00 70 1010.3
20260509030032 62 259 0.0 1.0 0.00 0.00 0.00 69 1010.4
20260509024528 62 0 0.0 1.0 0.00 0.00 0.00 69 1010.7
20260509023029 63 0 0.0 1.0 0.00 0.00 0.00 69 1010.7
20260509021534 63 0 0.0 1.0 0.00 0.00 0.00 69 1010.7
20260509020041 63 0 0.0 1.0 0.00 0.00 0.00 68 1010.6
20260509014528 64 0 0.0 2.0 0.00 0.00 0.00 68 1010.4
20260509013040 65 258 0.0 1.0 0.00 0.00 0.00 68 1010.6
20260509011530 65 0 0.0 1.0 0.00 0.00 0.00 67 1010.5
20260509010028 66 0 0.0 1.0 0.00 0.00 0.00 67 1010.6
20260509004533 68 0 0.0 1.0 0.00 0.00 0.00 66 1010.6
20260509003029 69 0 0.0 1.0 0.00 0.00 0.00 64 1010.4
20260509001528 70 271 1.0 4.0 0.00 0.00 0.00 61 1010.5
20260509000030 71 265 1.0 6.0 0.00 0.00 0.00 59 1010.8
20260508234531 71 272 1.0 49.0 0.00 0.00 0.00 49 1010.8
20260508233031 69 291 3.0 8.0 0.00 0.00 0.00 54 1010.8
20260508231529 68 274 1.0 7.0 0.00 0.00 0.00 65 1010.9
20260508230039 69 276 2.0 7.0 0.00 0.00 0.00 63 1011.2
20260508224528 70 290 2.0 9.0 0.00 0.00 0.00 63 1011.1
20260508223032 71 274 3.0 9.0 0.00 0.00 0.00 62 1011.0
20260508221530 71 263 3.0 10.0 0.00 0.00 0.00 63 1010.9
20260508220029 71 261 2.0 7.0 0.00 0.00 0.00 62 1010.8
20260508214533 71 262 4.0 9.0 0.00 0.00 0.00 62 1010.8
20260508213037 71 215 2.0 11.0 0.00 0.00 0.00 64 1010.7
20260508211536 71 273 4.0 11.0 0.00 0.00 0.00 65 1011.1
20260508210211 71 236 3.0 10.0 0.00 0.00 0.00 65 1011.3
20260508203038 71 273 3.0 8.0 0.00 0.00 0.00 64 1011.6
20260508201529 72 78 2.0 12.0 0.00 0.00 0.00 66 1011.8
20260508200028 72 262 3.0 10.0 0.00 0.00 0.00 67 1012.1